UAL8437 PHNL-KSFO

Flight info

Callsign UAL8437
Flight time N/A
Altitude 35000
Route MKK5 KOLEA CLUTS R465 CORTT/N0464F370 R465 CINNY PIRAT3
Aircraft B739/M-SDE2E3FGHIRWXY/LB1

Departure

Time 2026-05-03 20:59
Airport Daniel K. Inouye International Airport (PHNL)

Arrival

Time N/A
Airport San Francisco International Airport (KSFO)
Time Latitude Longitude Altitude Speed Heading
2026-05-03 20:41 21.32951 -157.91956 27 ft 0 kts 279°
2026-05-03 20:47 21.32949 -157.91941 28 ft 3 kts 279°
2026-05-03 20:47 21.32946 -157.91921 26 ft 3 kts 292°
2026-05-03 20:48 21.32934 -157.91906 28 ft 3 kts 347°
2026-05-03 20:48 21.32913 -157.91905 25 ft 3 kts
2026-05-03 20:48 21.32890 -157.91909 26 ft 3 kts
2026-05-03 20:48 21.32867 -157.91913 26 ft 3 kts
2026-05-03 20:49 21.32843 -157.91917 23 ft 3 kts
2026-05-03 20:49 21.32822 -157.91920 27 ft 3 kts 12°
2026-05-03 20:49 21.32800 -157.91928 26 ft 3 kts 31°
2026-05-03 20:49 21.32783 -157.91943 28 ft 3 kts 58°
2026-05-03 20:50 21.32775 -157.91965 26 ft 3 kts 83°
2026-05-03 20:50 21.32773 -157.91988 24 ft 3 kts 90°
2026-05-03 20:50 21.32773 -157.92010 24 ft 1 kts 90°
2026-05-03 20:51 21.32773 -157.92000 23 ft 5 kts 89°
2026-05-03 20:52 21.32761 -157.91942 28 ft 9 kts 121°
2026-05-03 20:52 21.32710 -157.91900 23 ft 9 kts 147°
2026-05-03 20:52 21.32658 -157.91863 23 ft 9 kts 146°
2026-05-03 20:52 21.32635 -157.91847 24 ft 0 kts 146°
2026-05-03 20:54 21.32631 -157.91844 26 ft 4 kts 146°
2026-05-03 20:54 21.32481 -157.91733 23 ft 21 kts 143°
2026-05-03 20:54 21.32364 -157.91639 23 ft 21 kts 143°
2026-05-03 20:55 21.32251 -157.91548 23 ft 20 kts 143°
2026-05-03 20:55 21.32150 -157.91467 24 ft 9 kts 145°
2026-05-03 20:55 21.32100 -157.91500 25 ft 11 kts 234°
2026-05-03 20:55 21.32038 -157.91589 25 ft 19 kts 230°
2026-05-03 20:56 21.31922 -157.91691 25 ft 23 kts 216°
2026-05-03 20:56 21.31820 -157.91817 25 ft 22 kts 233°
2026-05-03 20:56 21.31720 -157.91958 26 ft 27 kts 233°
2026-05-03 20:56 21.31605 -157.92121 25 ft 28 kts 233°
2026-05-03 20:57 21.31493 -157.92281 25 ft 26 kts 233°
2026-05-03 20:57 21.31387 -157.92432 25 ft 24 kts 233°
2026-05-03 20:57 21.31302 -157.92552 25 ft 13 kts 232°
2026-05-03 20:57 21.31302 -157.92627 26 ft 10 kts 321°
2026-05-03 20:58 21.31360 -157.92670 26 ft 10 kts 324°
2026-05-03 20:58 21.31415 -157.92686 23 ft 8 kts 36°
2026-05-03 20:58 21.31463 -157.92617 25 ft 26 kts 53°
2026-05-03 20:58 21.31714 -157.92260 25 ft 92 kts 52°
2026-05-03 20:59 21.32207 -157.91562 26 ft 143 kts 53°
2026-05-03 20:59 21.32860 -157.90636 330 ft 159 kts 56°
2026-05-03 20:59 21.33396 -157.89549 740 ft 177 kts 83°
2026-05-03 20:59 21.33005 -157.88247 1156 ft 201 kts 127°
2026-05-03 21:00 21.31790 -157.87396 1672 ft 218 kts 153°
2026-05-03 21:00 21.30844 -157.86990 2002 ft 224 kts 153°
2026-05-03 21:00 21.28717 -157.86253 2309 ft 259 kts 158°
2026-05-03 21:00 21.27012 -157.85546 2861 ft 262 kts 140°
2026-05-03 21:01 21.25758 -157.84215 3781 ft 251 kts 122°
2026-05-03 21:01 21.24770 -157.82701 4553 ft 252 kts 120°
2026-05-03 21:01 21.23806 -157.81109 5229 ft 259 kts 120°
2026-05-03 21:01 21.23216 -157.79291 5872 ft 261 kts 89°
2026-05-03 21:02 21.23703 -157.77438 6594 ft 264 kts 57°
2026-05-03 21:02 21.24730 -157.75787 7249 ft 268 kts 59°
2026-05-03 21:02 21.25715 -157.74077 7890 ft 273 kts 59°
2026-05-03 21:02 21.26709 -157.72311 8510 ft 278 kts 59°
2026-05-03 21:03 21.27703 -157.70523 9164 ft 283 kts 59°
2026-05-03 21:03 21.28715 -157.68685 9767 ft 288 kts 59°
2026-05-03 21:03 21.29734 -157.66826 10441 ft 291 kts 59°
2026-05-03 21:03 21.30786 -157.64899 10667 ft 310 kts 59°
2026-05-03 21:04 21.31890 -157.62869 10838 ft 329 kts 59°
2026-05-03 21:04 21.33074 -157.60685 10977 ft 348 kts 59°
2026-05-03 21:04 21.34318 -157.58385 11116 ft 365 kts 59°
2026-05-03 21:04 21.35622 -157.55973 11237 ft 381 kts 59°
2026-05-03 21:05 21.36976 -157.53463 11407 ft 393 kts 59°
2026-05-03 21:05 21.38355 -157.50903 11789 ft 398 kts 59°
2026-05-03 21:05 21.39750 -157.48314 12195 ft 402 kts 59°
2026-05-03 21:05 21.41154 -157.45705 12616 ft 405 kts 60°
2026-05-03 21:06 21.42553 -157.43106 13002 ft 408 kts 59°
2026-05-03 21:06 21.43979 -157.40455 13406 ft 412 kts 60°
2026-05-03 21:06 21.45421 -157.37774 13789 ft 415 kts 60°
2026-05-03 21:06 21.46871 -157.35077 14145 ft 418 kts 59°
2026-05-03 21:07 21.48328 -157.32363 14476 ft 421 kts 60°
2026-05-03 21:07 21.49799 -157.29626 14787 ft 425 kts 60°
2026-05-03 21:07 21.51279 -157.26867 15121 ft 427 kts 60°
2026-05-03 21:07 21.52766 -157.24096 15471 ft 429 kts 60°
2026-05-03 21:08 21.54255 -157.21317 15832 ft 431 kts 59°
2026-05-03 21:08 21.55757 -157.18516 16126 ft 434 kts 60°
2026-05-03 21:08 21.57270 -157.15693 16443 ft 436 kts 59°
2026-05-03 21:08 21.58785 -157.12865 16788 ft 438 kts 59°
2026-05-03 21:09 21.60293 -157.10049 17090 ft 440 kts 59°
2026-05-03 21:09 21.61823 -157.07188 17374 ft 444 kts 59°
2026-05-03 21:09 21.63361 -157.04311 17697 ft 445 kts 59°
2026-05-03 21:09 21.64908 -157.01415 17990 ft 447 kts 59°
2026-05-03 21:10 21.66462 -156.98504 18225 ft 451 kts 60°
2026-05-03 21:10 21.68026 -156.95572 18511 ft 453 kts 59°
2026-05-03 21:10 21.69593 -156.92628 18790 ft 453 kts 59°
2026-05-03 21:10 21.71162 -156.89684 19071 ft 454 kts 59°
2026-05-03 21:11 21.72736 -156.86728 19349 ft 455 kts 59°
2026-05-03 21:11 21.74308 -156.83774 19692 ft 454 kts 59°
2026-05-03 21:11 21.75883 -156.80815 19873 ft 457 kts 60°
2026-05-03 21:11 21.77466 -156.77838 20127 ft 459 kts 60°
2026-05-03 21:12 21.79049 -156.74860 20417 ft 459 kts 59°
2026-05-03 21:12 21.80633 -156.71878 20702 ft 459 kts 59°
2026-05-03 21:12 21.82216 -156.68898 20946 ft 460 kts 60°
2026-05-03 21:12 21.83811 -156.65891 21121 ft 463 kts 60°
2026-05-03 21:13 21.85391 -156.62912 21340 ft 464 kts 60°
2026-05-03 21:13 21.86992 -156.59891 21585 ft 465 kts 60°
2026-05-03 21:13 21.88597 -156.56861 21830 ft 466 kts 60°
2026-05-03 21:13 21.90205 -156.53824 22083 ft 466 kts 59°
2026-05-03 21:14 21.91810 -156.50791 22294 ft 467 kts 60°
2026-05-03 21:14 21.93420 -156.47746 22492 ft 468 kts 60°
2026-05-03 21:14 21.95033 -156.44694 22689 ft 470 kts 60°
2026-05-03 21:14 21.96652 -156.41629 22897 ft 471 kts 60°
2026-05-03 21:15 21.98276 -156.38553 23083 ft 472 kts 60°
2026-05-03 21:15 21.99899 -156.35477 23264 ft 473 kts 60°
2026-05-03 21:15 22.01531 -156.32382 23455 ft 474 kts 60°
2026-05-03 21:15 22.03145 -156.29318 23637 ft 475 kts 60°
2026-05-03 21:16 22.04777 -156.26219 23798 ft 476 kts 60°
2026-05-03 21:16 22.06415 -156.23109 23950 ft 477 kts 60°
2026-05-03 21:16 22.08049 -156.20003 24129 ft 477 kts 60°
2026-05-03 21:16 22.09690 -156.16882 24275 ft 477 kts 60°
2026-05-03 21:17 22.11330 -156.13761 24425 ft 478 kts 59°
2026-05-03 21:17 22.12419 -156.11688 24520 ft 479 kts 60°
2026-05-03 21:17 22.14617 -156.07498 24724 ft 480 kts 59°
2026-05-03 21:17 22.16262 -156.04362 24867 ft 480 kts 59°
2026-05-03 21:18 22.17888 -156.01260 25003 ft 481 kts 59°
2026-05-03 21:18 22.19538 -155.98111 25126 ft 482 kts 60°
2026-05-03 21:18 22.21192 -155.94953 25239 ft 483 kts 60°
2026-05-03 21:18 22.22848 -155.91791 25380 ft 484 kts 60°
2026-05-03 21:19 22.24505 -155.88623 25533 ft 484 kts 59°
2026-05-03 21:19 22.26161 -155.85453 25662 ft 485 kts 60°
2026-05-03 21:19 22.27822 -155.82270 25747 ft 487 kts 60°
2026-05-03 21:19 22.29484 -155.79085 25877 ft 487 kts 59°
2026-05-03 21:20 22.31145 -155.75905 26124 ft 485 kts 59°
2026-05-03 21:20 22.32797 -155.72734 26342 ft 484 kts 59°
2026-05-03 21:20 22.34444 -155.69569 26544 ft 483 kts 59°
2026-05-03 21:20 22.36091 -155.66406 26756 ft 483 kts 59°
2026-05-03 21:21 22.37735 -155.63245 26984 ft 482 kts 60°
2026-05-03 21:21 22.39377 -155.60086 27183 ft 482 kts 59°
2026-05-03 21:21 22.41001 -155.56964 27317 ft 484 kts 58°
2026-05-03 21:21 22.41195 -155.56590 27336 ft 484 kts 57°
2026-05-03 21:22 22.42845 -155.53414 27609 ft 483 kts 58°
2026-05-03 21:22 22.44481 -155.50265 28072 ft 477 kts 58°
2026-05-03 21:22 22.46102 -155.47141 28394 ft 476 kts 58°
2026-05-03 21:22 22.47726 -155.44010 28601 ft 478 kts 59°
2026-05-03 21:23 22.49349 -155.40875 28833 ft 478 kts 59°
2026-05-03 21:23 22.50971 -155.37739 29171 ft 477 kts 59°
2026-05-03 21:23 22.52588 -155.34614 29541 ft 475 kts 59°
2026-05-03 21:23 22.54196 -155.31502 29898 ft 473 kts 58°
2026-05-03 21:24 22.55803 -155.28395 30194 ft 474 kts 58°
2026-05-03 21:24 22.57417 -155.25271 30345 ft 477 kts 58°
2026-05-03 21:24 22.59042 -155.22187 30548 ft 477 kts 56°
2026-05-03 21:24 22.60952 -155.19265 30835 ft 474 kts 50°
2026-05-03 21:25 22.63009 -155.16472 31147 ft 473 kts 49°
2026-05-03 21:25 22.65088 -155.13710 31398 ft 473 kts 48°
2026-05-03 21:25 22.67172 -155.10945 31738 ft 471 kts 49°
2026-05-03 21:25 22.69224 -155.08195 32110 ft 469 kts 49°
2026-05-03 21:26 22.71263 -155.05436 32345 ft 470 kts 50°
2026-05-03 21:26 22.73300 -155.02655 32521 ft 472 kts 50°
2026-05-03 21:26 22.75336 -154.99865 32745 ft 472 kts 49°
2026-05-03 21:26 22.77375 -154.97064 33019 ft 472 kts 50°
2026-05-03 21:27 22.79385 -154.94304 33136 ft 473 kts 50°
2026-05-03 21:27 22.81430 -154.91494 33150 ft 475 kts 50°
2026-05-03 21:27 22.85531 -154.85854 33165 ft 476 kts 50°
2026-05-03 21:28 22.89630 -154.80214 33167 ft 476 kts 50°
2026-05-03 21:28 22.93723 -154.74576 33155 ft 475 kts 50°
2026-05-03 21:29 22.97802 -154.68950 33154 ft 473 kts 50°
2026-05-03 21:29 23.01797 -154.63294 33156 ft 472 kts 53°
2026-05-03 21:30 23.05436 -154.57358 33159 ft 472 kts 56°
2026-05-03 21:30 23.08960 -154.51411 33160 ft 471 kts 55°
2026-05-03 21:31 23.12540 -154.45448 33160 ft 470 kts 54°
2026-05-03 21:31 23.16137 -154.39520 33161 ft 470 kts 55°
2026-05-03 21:32 23.19747 -154.33586 33158 ft 470 kts 55°
2026-05-03 21:32 23.23360 -154.27643 33163 ft 471 kts 54°
2026-05-03 21:33 23.26957 -154.21713 33164 ft 473 kts 55°
2026-05-03 21:33 23.30589 -154.15715 33165 ft 475 kts 55°
2026-05-03 21:34 23.33611 -154.10719 33163 ft 476 kts 54°
2026-05-03 21:34 23.37254 -154.04690 33178 ft 476 kts 55°
2026-05-03 21:35 23.40881 -153.98679 33162 ft 477 kts 55°
2026-05-03 21:35 23.44526 -153.92637 33167 ft 477 kts 55°
2026-05-03 21:36 23.48166 -153.86591 33163 ft 476 kts 55°
2026-05-03 21:36 23.51797 -153.80554 33164 ft 476 kts 55°
2026-05-03 21:37 23.55425 -153.74515 33165 ft 476 kts 55°
2026-05-03 21:37 23.59051 -153.68477 33172 ft 475 kts 55°
2026-05-03 21:38 23.62668 -153.62446 33156 ft 475 kts 55°
2026-05-03 21:38 23.66250 -153.56455 33163 ft 474 kts 55°
2026-05-03 21:39 23.69851 -153.50428 33163 ft 473 kts 55°
2026-05-03 21:39 23.73448 -153.44405 33164 ft 473 kts 55°
2026-05-03 21:40 23.77036 -153.38390 33161 ft 473 kts 55°
2026-05-03 21:40 23.80630 -153.32372 33181 ft 473 kts 55°
2026-05-03 21:41 23.84242 -153.26345 33158 ft 474 kts 55°
2026-05-03 21:41 23.87830 -153.20349 33162 ft 474 kts 55°
2026-05-03 21:42 23.91434 -153.14312 33166 ft 474 kts 55°
2026-05-03 21:42 23.95040 -153.08266 33156 ft 475 kts 55°
2026-05-03 21:43 23.98649 -153.02208 33170 ft 475 kts 55°
2026-05-03 21:43 24.02257 -152.96140 33186 ft 476 kts 55°
2026-05-03 21:44 24.05866 -152.90069 33162 ft 475 kts 55°
2026-05-03 21:44 24.09447 -152.84031 33166 ft 475 kts 55°
2026-05-03 21:45 24.13045 -152.77960 33159 ft 475 kts 55°
2026-05-03 21:45 24.16634 -152.71898 33168 ft 475 kts 55°
2026-05-03 21:46 24.20223 -152.65825 33167 ft 475 kts 55°
2026-05-03 21:46 24.23813 -152.59745 33182 ft 475 kts 55°
2026-05-03 21:47 24.27403 -152.53658 33167 ft 475 kts 55°
2026-05-03 21:47 24.30962 -152.47615 33166 ft 475 kts 55°
2026-05-03 21:48 24.34545 -152.41525 33170 ft 475 kts 55°
2026-05-03 21:48 24.38126 -152.35430 33171 ft 475 kts 55°
2026-05-03 21:49 24.41700 -152.29337 33173 ft 475 kts 55°
2026-05-03 21:49 24.45278 -152.23233 33180 ft 475 kts 55°
2026-05-03 21:50 24.48833 -152.17163 33167 ft 475 kts 55°
2026-05-03 21:50 24.52408 -152.11054 33171 ft 475 kts 55°
2026-05-03 21:51 24.55976 -152.04939 33172 ft 475 kts 55°
2026-05-03 21:51 24.59543 -151.98818 33172 ft 476 kts 55°
2026-05-03 21:52 24.63115 -151.92684 33179 ft 476 kts 55°
2026-05-03 21:52 24.66664 -151.86581 33180 ft 476 kts 55°
2026-05-03 21:53 24.70232 -151.80441 33171 ft 476 kts 55°
2026-05-03 21:53 24.73801 -151.74290 33177 ft 476 kts 55°
2026-05-03 21:54 24.77364 -151.68140 33173 ft 476 kts 55°
2026-05-03 21:54 24.80923 -151.61989 33175 ft 476 kts 55°
2026-05-03 21:55 24.84460 -151.55871 33174 ft 476 kts 55°
2026-05-03 21:55 24.88011 -151.49719 33176 ft 476 kts 55°
2026-05-03 21:56 24.91558 -151.43566 33172 ft 475 kts 55°
2026-05-03 21:56 24.95106 -151.37404 33174 ft 475 kts 55°
2026-05-03 21:57 24.98620 -151.31291 33177 ft 475 kts 56°
2026-05-03 21:57 25.02156 -151.25135 33181 ft 474 kts 56°
2026-05-03 21:58 25.05689 -151.18975 33189 ft 475 kts 56°
2026-05-03 21:58 25.09214 -151.12821 33178 ft 475 kts 56°
2026-05-03 21:59 25.12741 -151.06656 33181 ft 475 kts 56°
2026-05-03 21:59 25.16267 -151.00483 33177 ft 475 kts 56°
2026-05-03 22:00 25.19767 -150.94349 33177 ft 475 kts 56°
2026-05-03 22:00 25.23297 -150.88154 33181 ft 476 kts 56°
2026-05-03 22:01 25.26823 -150.81958 33184 ft 476 kts 56°
2026-05-03 22:01 25.30348 -150.75755 33178 ft 477 kts 56°
2026-05-03 22:02 25.33877 -150.69540 33176 ft 477 kts 56°
2026-05-03 22:02 25.37412 -150.63308 33179 ft 478 kts 56°
2026-05-03 22:03 25.40945 -150.57064 33180 ft 479 kts 56°
2026-05-03 22:03 25.44460 -150.50842 33187 ft 480 kts 56°
2026-05-03 22:04 25.47999 -150.44577 33179 ft 480 kts 56°
2026-05-03 22:04 25.51535 -150.38305 33180 ft 480 kts 56°
2026-05-03 22:05 25.55069 -150.32027 33183 ft 480 kts 56°
2026-05-03 22:05 25.58581 -150.25779 33182 ft 480 kts 56°
2026-05-03 22:06 25.62109 -150.19495 33183 ft 480 kts 56°
2026-05-03 22:06 25.65630 -150.13218 33191 ft 479 kts 56°
2026-05-03 22:07 25.69147 -150.06936 33182 ft 479 kts 56°
2026-05-03 22:07 25.72659 -150.00657 33184 ft 479 kts 56°
2026-05-03 22:08 25.76164 -149.94381 33188 ft 478 kts 56°
2026-05-03 22:08 25.79664 -149.88106 33190 ft 478 kts 56°
2026-05-03 22:09 25.83140 -149.81866 33194 ft 478 kts 56°
2026-05-03 22:10 25.88379 -149.72443 33186 ft 477 kts 56°
2026-05-03 22:10 25.91862 -149.66169 33191 ft 477 kts 56°
2026-05-03 22:11 25.95341 -149.59893 33194 ft 477 kts 56°
2026-05-03 22:11 25.98820 -149.53608 33190 ft 477 kts 56°
2026-05-03 22:12 26.02270 -149.47367 33198 ft 477 kts 56°
2026-05-03 22:12 26.05744 -149.41074 33191 ft 477 kts 56°
2026-05-03 22:13 26.09213 -149.34782 33190 ft 477 kts 56°
2026-05-03 22:13 26.12686 -149.28474 33195 ft 477 kts 56°
2026-05-03 22:14 26.16157 -149.22160 33192 ft 477 kts 56°
2026-05-03 22:14 26.19622 -149.15848 33194 ft 477 kts 56°
2026-05-03 22:15 26.23062 -149.09574 33197 ft 478 kts 56°
2026-05-03 22:15 26.26523 -149.03253 33198 ft 478 kts 56°
2026-05-03 22:16 26.29984 -148.96923 33197 ft 477 kts 56°
2026-05-03 22:16 26.33434 -148.90603 33195 ft 477 kts 56°
2026-05-03 22:17 26.36886 -148.84273 33194 ft 477 kts 56°
2026-05-03 22:17 26.40328 -148.77949 33200 ft 476 kts 56°
2026-05-03 22:18 26.43744 -148.71667 33194 ft 476 kts 56°
2026-05-03 22:18 26.47173 -148.65350 33198 ft 476 kts 56°
2026-05-03 22:19 26.50606 -148.59019 33195 ft 476 kts 56°
2026-05-03 22:19 26.54028 -148.52698 33196 ft 475 kts 56°
2026-05-03 22:20 26.57429 -148.46408 33205 ft 475 kts 56°
2026-05-03 22:20 26.60844 -148.40086 33191 ft 475 kts 56°
2026-05-03 22:21 26.64256 -148.33755 33196 ft 475 kts 56°
2026-05-03 22:21 26.67661 -148.27427 33195 ft 474 kts 56°
2026-05-03 22:22 26.70488 -148.22168 33193 ft 474 kts 56°
2026-05-03 22:22 26.73887 -148.15840 33205 ft 474 kts 56°
2026-05-03 22:23 26.77277 -148.09516 33193 ft 473 kts 56°
2026-05-03 22:23 26.80662 -148.03192 33198 ft 473 kts 56°
2026-05-03 22:24 26.84023 -147.96906 33199 ft 472 kts 56°
2026-05-03 22:24 26.87398 -147.90585 33209 ft 472 kts 56°
2026-05-03 22:25 26.90765 -147.84270 33195 ft 472 kts 56°
2026-05-03 22:25 26.94124 -147.77959 33206 ft 471 kts 56°
2026-05-03 22:26 26.97477 -147.71651 33180 ft 470 kts 56°
2026-05-03 22:26 27.00817 -147.65360 33200 ft 469 kts 56°
2026-05-03 22:27 27.04127 -147.59115 33201 ft 469 kts 56°
2026-05-03 22:27 27.07454 -147.52829 33200 ft 468 kts 56°
2026-05-03 22:28 27.10773 -147.46548 33195 ft 467 kts 56°
2026-05-03 22:28 27.14085 -147.40274 33192 ft 467 kts 56°
2026-05-03 22:29 27.17395 -147.33992 33205 ft 467 kts 56°
2026-05-03 22:29 27.20697 -147.27717 33202 ft 466 kts 56°
2026-05-03 22:30 27.23995 -147.21442 33205 ft 466 kts 56°
2026-05-03 22:30 27.27272 -147.15202 33207 ft 466 kts 56°
2026-05-03 22:31 27.30564 -147.08921 33204 ft 466 kts 56°
2026-05-03 22:31 27.33850 -147.02642 33205 ft 466 kts 56°
2026-05-03 22:32 27.37134 -146.96357 33194 ft 466 kts 56°
2026-05-03 22:32 27.40418 -146.90064 33201 ft 465 kts 56°
2026-05-03 22:33 27.43676 -146.83809 33214 ft 465 kts 56°
2026-05-03 22:33 27.46948 -146.77521 33203 ft 465 kts 56°
2026-05-03 22:34 27.50213 -146.71236 33200 ft 464 kts 56°
2026-05-03 22:34 27.53469 -146.64958 33201 ft 464 kts 56°
2026-05-03 22:35 27.56724 -146.58674 33204 ft 463 kts 57°
2026-05-03 22:35 27.59947 -146.52443 33208 ft 463 kts 57°
2026-05-03 22:36 27.63185 -146.46173 33202 ft 462 kts 57°
2026-05-03 22:36 27.66416 -146.39908 33203 ft 461 kts 57°
2026-05-03 22:37 27.69638 -146.33652 33202 ft 460 kts 57°
2026-05-03 22:37 27.72853 -146.27400 33194 ft 461 kts 57°
2026-05-03 22:38 27.76074 -146.21135 33216 ft 462 kts 57°
2026-05-03 22:38 27.79313 -146.14819 33215 ft 465 kts 57°
2026-05-03 22:39 27.82543 -146.08506 33213 ft 468 kts 57°
2026-05-03 22:39 27.85808 -146.02116 33212 ft 470 kts 57°
2026-05-03 22:40 27.89086 -145.95694 33212 ft 471 kts 57°
2026-05-03 22:40 27.92357 -145.89273 33217 ft 471 kts 57°
2026-05-03 22:41 27.95613 -145.82874 33209 ft 471 kts 57°
2026-05-03 22:41 27.98881 -145.76442 33222 ft 470 kts 57°
2026-05-03 22:42 28.02130 -145.70038 33210 ft 469 kts 57°
2026-05-03 22:42 28.05373 -145.63635 33211 ft 467 kts 57°
2026-05-03 22:43 28.08581 -145.57293 33214 ft 466 kts 57°
2026-05-03 22:43 28.11805 -145.50909 33230 ft 465 kts 57°
2026-05-03 22:44 28.15016 -145.44542 33212 ft 464 kts 57°
2026-05-03 22:44 28.18218 -145.38181 33215 ft 463 kts 57°
2026-05-03 22:45 28.21384 -145.31885 33212 ft 462 kts 57°
2026-05-03 22:45 28.24569 -145.25540 33229 ft 462 kts 57°
2026-05-03 22:46 28.27742 -145.19209 33215 ft 461 kts 57°
2026-05-03 22:46 28.30910 -145.12878 33215 ft 461 kts 57°
2026-05-03 22:47 28.34053 -145.06589 33207 ft 460 kts 57°
2026-05-03 22:47 28.37209 -145.00264 33225 ft 460 kts 57°
2026-05-03 22:48 28.40362 -144.93935 33215 ft 460 kts 58°
2026-05-03 22:48 28.43513 -144.87601 33210 ft 460 kts 58°
2026-05-03 22:49 28.46657 -144.81271 33209 ft 460 kts 58°
2026-05-03 22:49 28.49800 -144.74933 33230 ft 460 kts 57°
2026-05-03 22:50 28.52915 -144.68643 33220 ft 459 kts 57°
2026-05-03 22:50 28.56047 -144.62309 33212 ft 459 kts 58°
2026-05-03 22:51 28.59177 -144.55966 33209 ft 459 kts 58°
2026-05-03 22:51 28.62300 -144.49630 33224 ft 458 kts 58°
2026-05-03 22:52 28.65416 -144.43299 33211 ft 458 kts 58°
2026-05-03 22:52 28.68510 -144.37002 33209 ft 458 kts 58°
2026-05-03 22:53 28.71616 -144.30671 33207 ft 457 kts 58°
2026-05-03 22:53 28.74715 -144.24345 33229 ft 457 kts 57°
2026-05-03 22:54 28.77809 -144.18018 33214 ft 457 kts 58°
2026-05-03 22:54 28.80904 -144.11682 33212 ft 457 kts 58°
2026-05-03 22:55 28.83970 -144.05393 33217 ft 456 kts 58°
2026-05-03 22:55 28.87054 -143.99059 33224 ft 456 kts 58°
2026-05-03 22:56 28.90131 -143.92728 33213 ft 456 kts 58°
2026-05-03 22:56 28.93206 -143.86393 33211 ft 456 kts 58°
2026-05-03 22:57 28.96278 -143.80053 33208 ft 455 kts 58°
2026-05-03 22:57 28.99320 -143.73765 33231 ft 455 kts 58°
2026-05-03 22:58 29.02375 -143.67441 33213 ft 454 kts 58°
2026-05-03 22:58 29.05427 -143.61113 33211 ft 454 kts 58°
2026-05-03 22:59 29.08470 -143.54795 33214 ft 454 kts 58°
2026-05-03 22:59 29.11512 -143.48468 33216 ft 453 kts 58°
2026-05-03 23:00 29.14547 -143.42145 33217 ft 453 kts 58°
2026-05-03 23:00 29.17562 -143.35855 33222 ft 453 kts 58°
2026-05-03 23:01 29.20590 -143.29529 33220 ft 453 kts 58°
2026-05-03 23:01 29.23622 -143.23184 33236 ft 454 kts 58°
2026-05-03 23:02 29.26651 -143.16834 33218 ft 454 kts 58°
2026-05-03 23:02 29.29675 -143.10484 33220 ft 454 kts 58°
2026-05-03 23:03 29.32699 -143.04125 33220 ft 454 kts 58°
2026-05-03 23:03 29.35717 -142.97768 33231 ft 454 kts 58°
2026-05-03 23:04 29.38711 -142.91452 33218 ft 453 kts 58°
2026-05-03 23:04 29.41718 -142.85098 33216 ft 453 kts 58°
2026-05-03 23:05 29.44725 -142.78735 33217 ft 452 kts 58°
2026-05-03 23:05 29.47720 -142.72387 33231 ft 452 kts 58°
2026-05-03 23:06 29.50709 -142.66041 33215 ft 451 kts 58°
2026-05-03 23:06 29.53690 -142.59701 33220 ft 451 kts 58°
2026-05-03 23:07 29.56647 -142.53404 33224 ft 450 kts 58°
2026-05-03 23:07 29.59617 -142.47068 33223 ft 450 kts 59°
2026-05-03 23:08 29.62586 -142.40723 33218 ft 450 kts 59°
2026-05-03 23:08 29.65547 -142.34387 33220 ft 450 kts 59°
2026-05-03 23:09 29.68505 -142.28048 33233 ft 449 kts 59°
2026-05-03 23:09 29.70960 -142.22777 33222 ft 449 kts 59°
2026-05-03 23:10 29.74387 -142.15408 33217 ft 449 kts 59°
2026-05-03 23:10 29.76856 -142.10091 33217 ft 449 kts 59°
2026-05-03 23:11 29.79777 -142.03790 33232 ft 449 kts 59°
2026-05-03 23:11 29.82717 -141.97440 33211 ft 449 kts 59°
2026-05-03 23:12 29.85651 -141.91091 33215 ft 449 kts 59°
2026-05-03 23:12 29.88580 -141.84742 33224 ft 449 kts 59°
2026-05-03 23:13 29.91510 -141.78382 33228 ft 449 kts 59°
2026-05-03 23:13 29.94438 -141.72016 33210 ft 449 kts 59°
2026-05-03 23:14 29.97359 -141.65653 33215 ft 449 kts 59°
2026-05-03 23:14 30.00258 -141.59328 33215 ft 449 kts 59°
2026-05-03 23:15 30.03172 -141.52962 33219 ft 449 kts 59°
2026-05-03 23:15 30.06086 -141.46584 33214 ft 449 kts 59°
2026-05-03 23:16 30.08998 -141.40201 33211 ft 448 kts 59°
2026-05-03 23:16 30.11886 -141.33859 33219 ft 448 kts 59°
2026-05-03 23:17 30.14786 -141.27480 33219 ft 448 kts 59°
2026-05-03 23:17 30.17678 -141.21107 33213 ft 448 kts 59°
2026-05-03 23:18 30.20568 -141.14731 33209 ft 447 kts 59°
2026-05-03 23:18 30.23452 -141.08355 33216 ft 447 kts 59°
2026-05-03 23:19 30.26319 -141.02006 33215 ft 448 kts 59°
2026-05-03 23:19 30.29205 -140.95606 33216 ft 448 kts 59°
2026-05-03 23:20 30.32089 -140.89198 33208 ft 448 kts 60°
2026-05-03 23:20 30.34970 -140.82788 33220 ft 449 kts 60°
2026-05-03 23:21 30.37852 -140.76363 33217 ft 449 kts 60°
2026-05-03 23:21 30.40711 -140.69981 33215 ft 450 kts 60°
2026-05-03 23:22 30.45024 -140.60322 33219 ft 450 kts 60°
2026-05-03 23:22 30.47899 -140.53865 33218 ft 450 kts 60°
2026-05-03 23:23 30.50769 -140.47410 33217 ft 450 kts 60°
2026-05-03 23:23 30.53632 -140.40959 33227 ft 450 kts 60°
2026-05-03 23:24 30.56494 -140.34498 33214 ft 450 kts 60°
2026-05-03 23:24 30.59337 -140.28071 33216 ft 450 kts 60°
2026-05-03 23:25 30.62189 -140.21613 33214 ft 450 kts 60°
2026-05-03 23:25 30.65043 -140.15138 33219 ft 450 kts 60°
2026-05-03 23:26 30.67896 -140.08655 33214 ft 450 kts 60°
2026-05-03 23:26 30.70743 -140.02173 33213 ft 450 kts 60°
2026-05-03 23:27 30.73586 -139.95690 33226 ft 450 kts 60°
2026-05-03 23:27 30.76413 -139.89235 33214 ft 451 kts 60°
2026-05-03 23:28 30.79253 -139.82736 33217 ft 451 kts 60°
2026-05-03 23:28 30.82091 -139.76231 33213 ft 451 kts 60°
2026-05-03 23:29 30.84928 -139.69717 33224 ft 451 kts 60°
2026-05-03 23:29 30.87759 -139.63204 33217 ft 451 kts 60°
2026-05-03 23:30 30.90578 -139.56710 33217 ft 451 kts 60°
2026-05-03 23:30 30.93409 -139.50175 33221 ft 452 kts 60°
2026-05-03 23:31 30.96240 -139.43629 33215 ft 452 kts 60°
2026-05-03 23:31 30.99069 -139.37076 33216 ft 452 kts 60°
2026-05-03 23:32 31.01894 -139.30520 33215 ft 452 kts 60°
2026-05-03 23:32 31.04717 -139.23960 33213 ft 453 kts 60°
2026-05-03 23:33 31.07518 -139.17437 33216 ft 453 kts 60°
2026-05-03 23:33 31.10337 -139.10861 33215 ft 453 kts 60°
2026-05-03 23:34 31.13154 -139.04277 33219 ft 453 kts 60°
2026-05-03 23:34 31.15970 -138.97685 33214 ft 453 kts 60°
2026-05-03 23:35 31.18784 -138.91085 33213 ft 453 kts 60°
2026-05-03 23:35 31.21574 -138.84531 33212 ft 454 kts 60°
2026-05-03 23:36 31.24381 -138.77924 33215 ft 454 kts 60°
2026-05-03 23:36 31.27184 -138.71316 33215 ft 454 kts 60°
2026-05-03 23:37 31.29984 -138.64702 33219 ft 454 kts 61°
2026-05-03 23:37 31.32783 -138.58079 33213 ft 454 kts 61°
2026-05-03 23:38 31.35580 -138.51447 33216 ft 454 kts 60°
2026-05-03 23:38 31.38358 -138.44850 33211 ft 454 kts 61°
2026-05-03 23:39 31.41146 -138.38215 33211 ft 454 kts 61°
2026-05-03 23:39 31.43944 -138.31547 33210 ft 455 kts 61°
2026-05-03 23:40 31.46715 -138.24930 33210 ft 455 kts 61°
2026-05-03 23:40 31.49500 -138.18267 33214 ft 455 kts 61°
2026-05-03 23:41 31.52284 -138.11596 33208 ft 456 kts 61°
2026-05-03 23:41 31.55069 -138.04908 33212 ft 456 kts 61°
2026-05-03 23:42 31.57850 -137.98219 33207 ft 457 kts 61°
2026-05-03 23:42 31.60631 -137.91517 33209 ft 457 kts 61°
2026-05-03 23:43 31.63393 -137.84847 33211 ft 457 kts 61°
2026-05-03 23:43 31.66168 -137.78135 33214 ft 458 kts 61°
2026-05-03 23:44 31.68948 -137.71396 33208 ft 458 kts 61°
2026-05-03 23:44 31.71733 -137.64633 33208 ft 459 kts 61°
2026-05-03 23:45 31.74510 -137.57879 33215 ft 459 kts 61°
2026-05-03 23:45 31.77267 -137.51159 33209 ft 459 kts 61°
2026-05-03 23:46 31.80043 -137.44382 33206 ft 460 kts 61°
2026-05-03 23:46 31.82819 -137.37588 33205 ft 460 kts 61°
2026-05-03 23:47 31.85578 -137.30828 33209 ft 461 kts 61°
2026-05-03 23:47 31.88346 -137.24028 33206 ft 461 kts 60°
2026-05-03 23:48 31.91113 -137.17220 33209 ft 461 kts 61°
2026-05-03 23:48 31.92857 -137.12922 33206 ft 461 kts 61°
2026-05-03 23:49 31.93604 -137.11081 33205 ft 462 kts 61°
2026-05-03 23:49 31.94225 -137.09548 33204 ft 462 kts 61°
2026-05-03 23:51 31.95827 -137.05591 33201 ft 462 kts 61°
2026-05-03 23:51 31.97970 -137.00292 33208 ft 462 kts 60°
2026-05-03 23:52 31.98712 -136.98456 33208 ft 462 kts 60°